TimeEDT,TemperatureF,Dew PointF,Humidity,Sea Level PressureIn,VisibilityMPH,Wind Direction,Wind SpeedMPH,Gust SpeedMPH,PrecipitationIn,Events,Conditions,WindDirDegrees,DateUTC
12:15 AM,63.7,56.3,77,30.02,10.0,SW,4.6,-,N/A,,Scattered Clouds,220,2012-10-06 04:15:00
12:35 AM,63.7,56.3,77,30.02,10.0,SSW,4.6,-,N/A,,Mostly Cloudy,200,2012-10-06 04:35:00
12:55 AM,64.2,55.9,74,30.01,10.0,SSW,5.8,-,N/A,,Mostly Cloudy,200,2012-10-06 04:55:00
1:15 AM,64.0,55.6,74,29.99,10.0,South,8.1,-,N/A,,Scattered Clouds,190,2012-10-06 05:15:00
1:35 AM,63.9,55.4,74,29.99,10.0,SSW,8.1,-,N/A,,Scattered Clouds,200,2012-10-06 05:35:00
1:55 AM,64.2,55.4,73,29.99,10.0,SSW,4.6,-,N/A,,Mostly Cloudy,210,2012-10-06 05:55:00
2:35 AM,64.4,55.4,73,29.98,10.0,SSW,5.8,-,N/A,,Scattered Clouds,200,2012-10-06 06:35:00
2:55 AM,64.9,55.0,70,29.98,10.0,SW,4.6,-,N/A,,Mostly Cloudy,220,2012-10-06 06:55:00
3:35 AM,65.5,55.4,70,29.98,10.0,SW,6.9,-,N/A,,Overcast,220,2012-10-06 07:35:00
3:55 AM,64.9,55.6,72,29.99,10.0,NW,9.2,-,N/A,,Overcast,310,2012-10-06 07:55:00
4:15 AM,64.4,56.3,75,30.00,10.0,NW,5.8,-,N/A,,Overcast,320,2012-10-06 08:15:00
4:35 AM,63.3,57.2,80,30.01,10.0,NNW,10.4,-,N/A,,Overcast,330,2012-10-06 08:35:00
4:55 AM,59.5,55.4,86,30.02,10.0,NNW,9.2,-,N/A,Rain,Rain,330,2012-10-06 08:55:00
5:15 AM,56.5,53.6,90,30.03,10.0,North,3.5,-,N/A,,Overcast,350,2012-10-06 09:15:00
5:35 AM,54.9,52.3,91,30.05,10.0,NW,6.9,-,N/A,,Drizzle,310,2012-10-06 09:35:00
5:55 AM,53.8,50.4,88,30.05,10.0,NNW,4.6,16.1,N/A,,Overcast,330,2012-10-06 09:55:00
6:15 AM,52.2,49.5,91,30.06,10.0,NNW,6.9,-,N/A,Rain,Rain,330,2012-10-06 10:15:00
6:35 AM,50.9,49.3,94,30.07,5.0,NNW,4.6,-,N/A,Rain,Rain,340,2012-10-06 10:35:00
6:55 AM,49.6,48.4,95,30.09,7.0,NW,5.8,-,N/A,Rain,Light Rain,320,2012-10-06 10:55:00
7:15 AM,49.3,48.2,96,30.10,10.0,NNW,3.5,-,N/A,Rain,Rain,340,2012-10-06 11:15:00
7:35 AM,49.1,47.8,95,30.10,10.0,NNW,4.6,-,N/A,,Overcast,340,2012-10-06 11:35:00
7:55 AM,48.6,47.3,95,30.11,10.0,North,4.6,-,N/A,,Overcast,350,2012-10-06 11:55:00
8:15 AM,47.8,46.0,93,30.12,10.0,NNW,8.1,-,N/A,,Overcast,330,2012-10-06 12:15:00
8:35 AM,47.3,45.9,95,30.13,10.0,NNW,6.9,-,N/A,,Drizzle,330,2012-10-06 12:35:00
8:55 AM,46.9,45.7,95,30.13,7.0,NNW,4.6,-,N/A,,Drizzle,340,2012-10-06 12:55:00
9:15 AM,46.9,46.2,97,30.14,5.0,NNW,3.5,-,N/A,,Light Drizzle,340,2012-10-06 13:15:00
9:35 AM,46.9,46.4,98,30.15,4.0,NNW,3.5,-,N/A,,Heavy Drizzle,340,2012-10-06 13:35:00
10:15 AM,46.4,45.9,98,30.16,4.0,NNW,4.6,-,N/A,,Drizzle,330,2012-10-06 14:15:00
10:35 AM,45.5,44.4,96,30.17,7.0,NW,5.8,-,N/A,,Overcast,320,2012-10-06 14:35:00
10:55 AM,45.9,44.2,94,30.17,10.0,NW,5.8,-,N/A,,Overcast,310,2012-10-06 14:55:00
11:15 AM,45.7,44.6,96,30.18,10.0,NW,4.6,-,N/A,,Overcast,310,2012-10-06 15:15:00
11:35 AM,45.9,44.8,96,30.18,10.0,North,4.6,-,N/A,,Overcast,350,2012-10-06 15:35:00
11:55 AM,45.9,45.0,97,30.19,10.0,WNW,3.5,-,N/A,,Overcast,300,2012-10-06 15:55:00
12:15 PM,46.0,44.2,93,30.19,10.0,NW,5.8,-,N/A,,Overcast,320,2012-10-06 16:15:00
12:35 PM,46.0,44.1,93,30.19,10.0,NW,3.5,-,N/A,,Overcast,320,2012-10-06 16:35:00
12:55 PM,46.9,44.4,91,30.19,10.0,Calm,Calm,-,N/A,,Overcast,0,2012-10-06 16:55:00
1:15 PM,49.5,43.9,81,30.17,10.0,West,4.6,-,N/A,,Overcast,270,2012-10-06 17:15:00
1:35 PM,50.7,44.6,80,30.17,10.0,North,3.5,-,N/A,,Overcast,10,2012-10-06 17:35:00
1:55 PM,52.5,45.1,76,30.16,10.0,Calm,Calm,-,N/A,,Overcast,0,2012-10-06 17:55:00
2:15 PM,54.0,45.1,72,30.14,10.0,Calm,Calm,-,N/A,,Overcast,0,2012-10-06 18:15:00
2:35 PM,55.0,45.3,70,30.13,10.0,NE,3.5,-,N/A,,Overcast,40,2012-10-06 18:35:00
2:55 PM,54.3,44.4,69,30.13,10.0,SE,4.6,-,N/A,,Scattered Clouds,140,2012-10-06 18:55:00
3:15 PM,55.0,43.7,66,30.13,10.0,SE,3.5,-,N/A,,Scattered Clouds,140,2012-10-06 19:15:00
3:35 PM,56.5,43.2,61,30.12,10.0,WSW,3.5,-,N/A,,Overcast,250,2012-10-06 19:35:00
3:55 PM,57.0,43.9,61,30.11,10.0,Calm,Calm,-,N/A,,Overcast,0,2012-10-06 19:55:00
4:15 PM,58.3,43.5,58,30.11,10.0,SSE,3.5,-,N/A,,Overcast,150,2012-10-06 20:15:00
4:35 PM,57.0,43.0,59,30.10,10.0,ESE,3.5,-,N/A,,Mostly Cloudy,120,2012-10-06 20:35:00
4:55 PM,57.7,44.1,60,30.10,10.0,SE,3.5,-,N/A,,Mostly Cloudy,130,2012-10-06 20:55:00
5:15 PM,56.8,43.2,60,30.10,10.0,Calm,Calm,-,N/A,,Mostly Cloudy,0,2012-10-06 21:15:00
5:35 PM,57.2,43.9,61,30.10,10.0,Calm,Calm,-,N/A,,Clear,0,2012-10-06 21:35:00
5:55 PM,57.2,42.4,58,30.11,10.0,WSW,3.5,-,N/A,,Clear,250,2012-10-06 21:55:00
6:15 PM,56.7,43.9,62,30.11,10.0,South,4.6,-,N/A,,Clear,190,2012-10-06 22:15:00
6:35 PM,55.4,44.1,66,30.12,10.0,South,4.6,-,N/A,,Clear,170,2012-10-06 22:35:00
7:15 PM,53.1,45.0,74,30.13,10.0,South,3.5,-,N/A,,Clear,180,2012-10-06 23:15:00
7:35 PM,52.2,44.8,76,30.14,10.0,SSW,3.5,-,N/A,,Clear,200,2012-10-06 23:35:00
7:55 PM,51.3,44.8,78,30.14,10.0,Calm,Calm,-,N/A,,Clear,0,2012-10-06 23:55:00
8:15 PM,50.9,44.6,79,30.15,10.0,SSW,3.5,-,N/A,,Clear,210,2012-10-07 00:15:00
8:55 PM,50.0,44.6,82,30.16,10.0,SW,3.5,-,N/A,,Clear,220,2012-10-07 00:55:00
9:15 PM,49.3,44.6,84,30.16,10.0,SSW,3.5,-,N/A,,Clear,200,2012-10-07 01:15:00
9:35 PM,48.7,44.6,86,30.16,10.0,Calm,Calm,-,N/A,,Clear,0,2012-10-07 01:35:00
9:55 PM,48.7,44.6,86,30.16,10.0,Calm,Calm,-,N/A,,Clear,0,2012-10-07 01:55:00
10:15 PM,48.7,44.6,86,30.16,10.0,Calm,Calm,-,N/A,,Clear,0,2012-10-07 02:15:00
10:35 PM,47.1,44.6,91,30.15,10.0,Calm,Calm,-,N/A,,Clear,0,2012-10-07 02:35:00
10:55 PM,46.6,45.3,95,30.14,10.0,Calm,Calm,-,N/A,,Clear,0,2012-10-07 02:55:00
11:15 PM,46.2,44.6,94,30.15,10.0,Calm,Calm,-,N/A,,Clear,0,2012-10-07 03:15:00
11:35 PM,45.7,44.8,97,30.16,10.0,Calm,Calm,-,N/A,,Scattered Clouds,0,2012-10-07 03:35:00